Location: Theydon Bois
(51.6750°N, 0.1050°E)
Time: 23:27:04
(UTC+00:00)

Envisat - Pass Details

Date: 19 December 2019
Orbit: 764 x 766 km, 98.1° (Epoch: 21 January)

Event Time Altitude Azimuth Distance (km) Brightness Sun altitude
Rises 05:43:44 0° 24° (NNE) 3,246 6.4 -20.1°
Reaches altitude 10° 05:46:34 10° 40° (NE) 2,314 5.8 -19.6°
Maximum altitude 05:50:29 22° 90° (E) 1,638 5.6 -19.0°
Drops below altitude 10° 05:54:22 10° 140° (SE) 2,299 6.3 -18.5°
Sets 05:57:10 0° 156° (SSE) 3,220 6.8 -18.0°
